Flag for Brazil Weather past 2 weeks in Manaus, Amazonas, Brazil

Now
81 °F

Passing clouds.


Feels Like: 85 °F
Forecast: N/A
Wind: 5 mph from Northeast

Location: Manaus Aeroporto

Current Time: Oct 24, 2014 at 7:29:15 PM

Latest Report: Oct 24, 2014 at 7:00 PM


Visibility: N/A

Pressure: 29.77 "Hg

Humidity: 74%

Dew point: 72 °F

Location of ManausLocation

Historic Weather in Manaus — Graph

°F

Manaus temperature yesterday

Maximum temperature yesterday: 88 °F (at 12:00 PM)
Minimum temperature yesterday: 77 °F (at 12:00 AM)
Average temperature yesterday: 80 °F

Past Weeks' High & Low Weather Summary

 TemperatureHumidityPressure
High91 °F (Oct 20, 2:00 PM)94% (Oct 13, 4:00 AM)30.01 "Hg (Oct 13, 4:00 AM)
Low72 °F (Oct 13, 4:00 AM)49% (Oct 22, 2:00 PM)29.71 "Hg (Oct 9, 6:00 PM)
Average80 °F81%29.88 "Hg
* Reported Oct 9 6:00 PM — Oct 24 6:00 PM, Manaus, Weather by CustomWeather, © 2014

Note: Actual official high and low records may vary slightly from our data, if they occured in-between our weather recording intervals... More about our weather records

Advertising

Manaus weather history for previous 24 hours

 ConditionsComfort  
Time TempWeatherWind HumidityBarometerVisibility
6:00 PM
Oct 24
82 °FPassing clouds.5 mph70%29.77 "HgN/A
5:00 PM82 °FScattered clouds.5 mph70%29.74 "HgN/A
4:00 PM82 °FScattered showers. Scattered clouds.12 mph70%N/AN/A
3:00 PM86 °FScattered showers. Scattered clouds.12 mph62%N/AN/A
2:00 PM86 °FScattered clouds.10 mph62%29.80 "HgN/A
1:00 PM82 °FThunderstorms. Partly sunny.5 mph84%29.83 "HgN/A
12:00 PM86 °FThunderstorms. Partly sunny.No wind70%29.89 "HgN/A
11:00 AM82 °FPartly sunny.3 mph79%29.89 "HgN/A
10:00 AM81 °FPartly sunny.5 mph79%29.92 "HgN/A
9:00 AM81 °FPartly sunny.5 mph84%29.92 "HgN/A
8:00 AM79 °FScattered clouds.3 mph84%29.92 "HgN/A
7:00 AM77 °FPartly sunny.2 mph89%29.89 "HgN/A
6:00 AM77 °FScattered clouds.3 mph89%29.86 "HgN/A
5:00 AM77 °FPassing clouds.1 mph83%29.86 "HgN/A
4:00 AM75 °FPassing clouds.No wind89%29.83 "HgN/A
3:00 AM77 °FPassing clouds.3 mph83%29.83 "HgN/A
2:00 AM77 °FPassing clouds.6 mph83%29.83 "HgN/A
1:00 AM77 °FPassing clouds.5 mph89%29.83 "HgN/A
12:00 AM79 °FPassing clouds.3 mph84%29.86 "HgN/A
11:00 PM
Oct 23
79 °FPassing clouds.5 mph84%29.89 "HgN/A
10:00 PM79 °FPassing clouds.6 mph84%29.86 "HgN/A
9:00 PM79 °FPassing clouds.5 mph89%29.86 "HgN/A
8:00 PM79 °FPassing clouds.6 mph89%29.83 "HgN/A
7:00 PM81 °FPartly cloudy.6 mph79%29.80 "HgN/A
Weather by CustomWeather, © 2014

See weather overviewHow to use our weather pages